Location: Dillon
(41.1766°N, 107.0923°W)
Time: 12:32:06
(UTC+00:00)

AO-92 - Pass Details

Date: 03 July 2022
Orbit: 469 x 481 km, 97.4° (Epoch: 10 August)

Event Time Altitude Azimuth Distance (km) Brightness Sun altitude
Exits shadow 06:16:31 14° 270° (W) 1,423 ? -24.6°
Drops below altitude 10° 06:18:22 10° 301° (WNW) 1,660 ? -24.6°
Sets 06:21:16 0° 327° (NNW) 2,549 ? -24.8°
